When you browse on this site, cookies collect data to enhance your experience and personalize the content and advertising you see.
Visit our Privacy Policy to learn more. By continuing to use the site, you agree to this use of cookies and data.
  • In Latvia
  • List of Countries
  • For 7 days
  • Water Temperature
  • Weather Map
  • Weather Widgets
  • user-avatar
    Login

    Hourly Weather Salzburg

    Today, 4 June, Thursday

    Time Temperature Precipitation Wind Pressure Humidity
    00:00 +5°C° 0 mm 2 mps 617 mmHg 83%
    01:00 +5°C° 0 mm 2 mps 617 mmHg 83%
    02:00 +5°C° 0 mm 2 mps 617 mmHg 85%
    03:00 +4°C° 0 mm 2 mps 616 mmHg 86%
    04:00 +4°C° 0 mm 2 mps 616 mmHg 87%
    05:00 +6°C° 0 mm 2 mps 616 mmHg 84%
    06:00 +8°C° 0 mm 1 mps 617 mmHg 81%
    07:00 +10°C° 0 mm 1 mps 617 mmHg 77%
    08:00 +12°C° 0 mm 1 mps 618 mmHg 69%
    09:00 +14°C° 0 mm 1 mps 618 mmHg 61%
    10:00 +16°C° 0 mm 1 mps 619 mmHg 53%
    11:00 +16°C° 0.1 mm 1 mps 619 mmHg 54%
    12:00 +16°C° 0.1 mm 1 mps 618 mmHg 55%
    13:00 +16°C° 0.1 mm 2 mps 618 mmHg 57%
    14:00 +15°C° 0.6 mm 2 mps 617 mmHg 65%
    15:00 +13°C° 0.6 mm 2 mps 616 mmHg 74%
    16:00 +12°C° 0.6 mm 1 mps 616 mmHg 83%
    17:00 +11°C° 0.9 mm 1 mps 615 mmHg 85%
    18:00 +10°C° 0.9 mm 1 mps 615 mmHg 87%
    19:00 +9°C° 0.9 mm 1 mps 614 mmHg 89%
    20:00 +8°C° 0.4 mm 1 mps 614 mmHg 92%
    21:00 +7°C° 0.4 mm 1 mps 614 mmHg 95%
    22:00 +6°C° 0.4 mm 0 mps 614 mmHg 97%
    23:00 +5°C° 2.5 mm 0 mps 614 mmHg 97%

    Tomorrow, 5 June, Friday

    Time Temperature Precipitation Wind Pressure Humidity
    00:00 +6°C° 2.5 mm 1 mps 613 mmHg 98%
    01:00 +6°C° 2.5 mm 1 mps 613 mmHg 98%
    02:00 +6°C° 1.7 mm 1 mps 613 mmHg 98%
    03:00 +6°C° 1.7 mm 1 mps 613 mmHg 98%
    04:00 +5°C° 1.7 mm 1 mps 613 mmHg 97%
    05:00 +5°C° 1.4 mm 1 mps 613 mmHg 97%
    06:00 +5°C° 1.4 mm 1 mps 613 mmHg 97%
    07:00 +4°C° 1.4 mm 0 mps 614 mmHg 97%
    08:00 +5°C° 1.7 mm 1 mps 614 mmHg 97%
    09:00 +5°C° 1.7 mm 1 mps 614 mmHg 97%
    10:00 +5°C° 1.7 mm 1 mps 615 mmHg 97%
    11:00 +6°C° 0.7 mm 1 mps 615 mmHg 93%
    12:00 +7°C° 0.7 mm 1 mps 616 mmHg 89%
    13:00 +7°C° 0.7 mm 1 mps 616 mmHg 85%
    14:00 +8°C° 0.2 mm 1 mps 617 mmHg 82%
    15:00 +9°C° 0.2 mm 1 mps 617 mmHg 78%
    16:00 +9°C° 0.2 mm 0 mps 617 mmHg 74%
    17:00 +8°C° 0.1 mm 0 mps 617 mmHg 77%
    18:00 +8°C° 0.1 mm 0 mps 617 mmHg 79%
    19:00 +7°C° 0.1 mm 0 mps 617 mmHg 82%
    20:00 +7°C° 0 mm 1 mps 617 mmHg 84%
    21:00 +6°C° 0 mm 1 mps 617 mmHg 86%
    22:00 +4°C° 0 mm 1 mps 617 mmHg 89%
    23:00 +4°C° 0 mm 1 mps 617 mmHg 89%

    Day after tomorrow, 6 June, Saturday

    Time Temperature Precipitation Wind Pressure Humidity
    00:00 +2°C° 0 mm 2 mps 617 mmHg 90%
    01:00 +2°C° 0 mm 2 mps 617 mmHg 91%
    02:00 +2°C° 0 mm 2 mps 617 mmHg 90%
    03:00 +2°C° 0 mm 2 mps 617 mmHg 89%
    04:00 +2°C° 0 mm 2 mps 617 mmHg 88%
    05:00 +5°C° 0 mm 1 mps 618 mmHg 83%
    06:00 +7°C° 0 mm 1 mps 619 mmHg 77%
    07:00 +9°C° 0 mm 1 mps 620 mmHg 71%
    08:00 +11°C° 0 mm 1 mps 621 mmHg 66%
    09:00 +12°C° 0 mm 1 mps 622 mmHg 62%
    10:00 +14°C° 0 mm 1 mps 623 mmHg 57%
    11:00 +14°C° 0.1 mm 1 mps 623 mmHg 59%
    12:00 +14°C° 0.1 mm 1 mps 623 mmHg 61%
    13:00 +14°C° 0.1 mm 2 mps 623 mmHg 62%
    14:00 +13°C° 0.3 mm 2 mps 622 mmHg 70%
    15:00 +13°C° 0.3 mm 1 mps 622 mmHg 77%
    16:00 +12°C° 0.3 mm 1 mps 621 mmHg 84%
    17:00 +11°C° 0.8 mm 1 mps 621 mmHg 89%
    18:00 +10°C° 0.8 mm 1 mps 621 mmHg 93%
    19:00 +8°C° 0.8 mm 1 mps 621 mmHg 98%
    20:00 +8°C° 1.1 mm 1 mps 621 mmHg 98%
    21:00 +8°C° 1.1 mm 1 mps 621 mmHg 98%
    22:00 +7°C° 1.1 mm 1 mps 621 mmHg 98%
    23:00 +7°C° 0.8 mm 1 mps 621 mmHg 98%

    7 June, Sunday

    Time Temperature Precipitation Wind Pressure Humidity
    00:00 +7°C° 0.8 mm 1 mps 621 mmHg 98%
    01:00 +7°C° 0.8 mm 1 mps 621 mmHg 98%
    02:00 +7°C° 0.1 mm 1 mps 621 mmHg 98%
    03:00 +5°C° 0.1 mm 0 mps 621 mmHg 97%
    04:00 +5°C° 0.1 mm 0 mps 621 mmHg 97%
    05:00 +6°C° 0 mm 0 mps 621 mmHg 96%
    06:00 +6°C° 0 mm 0 mps 621 mmHg 96%
    07:00 +8°C° 0 mm 1 mps 622 mmHg 95%
    08:00 +8°C° 0.1 mm 1 mps 622 mmHg 93%
    09:00 +9°C° 0.1 mm 1 mps 622 mmHg 92%
    10:00 +10°C° 0.1 mm 1 mps 623 mmHg 90%
    11:00 +10°C° 0.1 mm 1 mps 623 mmHg 87%
    12:00 +11°C° 0.1 mm 1 mps 623 mmHg 84%
    13:00 +12°C° 0.1 mm 1 mps 623 mmHg 80%
    14:00 +11°C° 0.8 mm 1 mps 623 mmHg 86%
    15:00 +9°C° 0.8 mm 2 mps 622 mmHg 91%
    16:00 +7°C° 0.8 mm 2 mps 622 mmHg 96%
    17:00 +6°C° 1 mm 2 mps 622 mmHg 97%
    18:00 +5°C° 1 mm 2 mps 622 mmHg 98%
    19:00 +4°C° 1 mm 2 mps 621 mmHg 99%
    20:00 +5°C° 1.6 mm 1 mps 622 mmHg 99%
    21:00 +5°C° 1.6 mm 1 mps 622 mmHg 99%
    22:00 +4°C° 1.6 mm 1 mps 622 mmHg 99%
    23:00 +4°C° 1.3 mm 1 mps 622 mmHg 99%

    8 June, Monday

    Time Temperature Precipitation Wind Pressure Humidity
    00:00 +4°C° 1.3 mm 1 mps 622 mmHg 99%
    01:00 +4°C° 1.3 mm 1 mps 622 mmHg 99%
    02:00 +4°C° 1.2 mm 1 mps 622 mmHg 99%
    03:00 +4°C° 1.2 mm 1 mps 621 mmHg 99%
    04:00 +4°C° 1.2 mm 1 mps 621 mmHg 99%
    05:00 +4°C° 0.9 mm 1 mps 621 mmHg 99%
    06:00 +4°C° 0.9 mm 1 mps 622 mmHg 99%
    07:00 +4°C° 0.9 mm 1 mps 622 mmHg 99%
    08:00 +4°C° 1.6 mm 1 mps 622 mmHg 99%
    09:00 +4°C° 1.6 mm 1 mps 622 mmHg 98%
    10:00 +4°C° 1.6 mm 1 mps 622 mmHg 98%
    11:00 +4°C° 0.5 mm 1 mps 622 mmHg 98%
    12:00 +4°C° 0.5 mm 1 mps 622 mmHg 98%
    13:00 +4°C° 0.5 mm 1 mps 622 mmHg 97%
    14:00 +4°C° 0.2 mm 1 mps 622 mmHg 97%
    15:00 +5°C° 0.2 mm 1 mps 622 mmHg 96%
    16:00 +5°C° 0.2 mm 1 mps 622 mmHg 95%
    17:00 +5°C° 0.7 mm 1 mps 622 mmHg 96%
    18:00 +5°C° 0.7 mm 1 mps 622 mmHg 97%
    19:00 +4°C° 0.7 mm 1 mps 622 mmHg 98%
    20:00 +4°C° 1 mm 1 mps 623 mmHg 98%
    21:00 +4°C° 1 mm 1 mps 623 mmHg 98%
    22:00 +4°C° 1 mm 1 mps 623 mmHg 98%
    23:00 +4°C° 0.3 mm 1 mps 623 mmHg 97%

    9 June, Tuesday

    Time Temperature Precipitation Wind Pressure Humidity
    00:00 +4°C° 0.3 mm 1 mps 623 mmHg 97%
    01:00 +3°C° 0.3 mm 1 mps 623 mmHg 96%
    02:00 +3°C° 0.4 mm 1 mps 623 mmHg 96%
    03:00 +3°C° 0.4 mm 1 mps 623 mmHg 96%
    04:00 +3°C° 0.4 mm 1 mps 623 mmHg 96%
    05:00 +3°C° 1.3 mm 1 mps 623 mmHg 96%
    06:00 +3°C° 1.3 mm 1 mps 623 mmHg 97%
    07:00 +3°C° 1.3 mm 1 mps 624 mmHg 97%
    08:00 +3°C° 1.3 mm 1 mps 624 mmHg 97%
    09:00 +4°C° 1.3 mm 1 mps 624 mmHg 97%
    10:00 +4°C° 1.3 mm 1 mps 624 mmHg 97%
    11:00 +3°C° 0.8 mm 0 mps 625 mmHg 97%
    12:00 +3°C° 0.8 mm 0 mps 625 mmHg 96%
    13:00 +4°C° 0.8 mm 0 mps 625 mmHg 96%
    14:00 +5°C° 0.1 mm 0 mps 625 mmHg 93%
    15:00 +6°C° 0.1 mm 0 mps 625 mmHg 89%
    16:00 +6°C° 0.1 mm 0 mps 625 mmHg 86%
    17:00 +6°C° 0.1 mm 0 mps 625 mmHg 88%
    18:00 +6°C° 0.1 mm 0 mps 625 mmHg 90%
    19:00 +5°C° 0.1 mm 0 mps 625 mmHg 91%
    20:00 +4°C° 0 mm 0 mps 625 mmHg 93%
    21:00 +4°C° 0 mm 1 mps 625 mmHg 94%
    22:00 +3°C° 0 mm 1 mps 625 mmHg 96%
    23:00 +3°C° 0 mm 1 mps 625 mmHg 95%
    Show more